Tracking 30743 objects as of 25-Jun-2025
HD Live streaming from Space Station
objects crossing your sky now

FENGYUN 1C DEB

Track FENGYUN 1C DEB now!
10-day predictions


NORAD ID: 30341
Int'l Code: 1999-025ABC
Perigee: 760.3 km
Apogee: 828.5 km
Inclination: 99.2 °
Period: 100.6 minutes
Semi major axis: 7165 km
RCS: 0.0444 m2 (small)
Launch date: May 10, 1999
Source: People's Republic of China (PRC)
Launch site: Taiyaun Space Center, China (TSC)

Note: This is SATELLITE DEBRIS
Your satellite tracking list
Your tracking list is empty




NASA's NSSDC Master Catalog

Two Line Element Set (TLE):
1 30341U 99025ABC 25175.59487809  .00003941  00000-0  14869-2 0  9993
2 30341  99.2262  52.8194 0047601 197.4521 192.5672 14.31350033946317
Source of the keplerian elements: AFSPC